Regional Weather Roundup
Issued by NWS Albany, NY

Home | Current Version | Previous Version | Text Only | Print | Product List | Glossary On
Versions: 1 2 3 4 5 6 7 8 9 10 11 12 13 14 15 16 17 18 19 20 21 22 23 24 25 26 27 28 29 30 31 32 33 34 35 36 37 38 39 40 41 42 43 44 45 46 47 48 49 50
000
ASUS41 KALY 222210
RWRALY

NEW YORK STATE HOURLY WEATHER ROUNDUP
NATIONAL WEATHER SERVICE ALBANY NY
600 PM EDT FRI AUG 22 2014

NOTE: "FAIR" INDICATES FEW OR NO CLOUDS BELOW 12,000 FEET WITH NO
SIGNIFICANT WEATHER AND/OR NO OBSTRUCTIONS TO VISIBILITY.

NYZ032-033-038>043-046>054-057>066-NYZ062>081-222300-
EAST


CITY           SKY/WX    TMP DP  RH WIND       PRES   REMARKS
ALBANY         LGT RAIN  68  61  78 CALM      30.07R
GLENS FALLS    NOT AVBL
POUGHKEEPSIE   CLOUDY    71  63  75 CALM      30.03R
NEWBURGH       CLOUDY    66  64  94 E8        30.06R FOG
MONTGOMERY     CLOUDY    67  63  87 NE5       30.05R
WHITE PLAINS   CLOUDY    70  58  65 E8        30.04R
ISLIP          PTSUNNY   73  55  53 NE9       30.02R
NEW YORK CITY  CLOUDY    68  61  78 VRB5      30.03S
CENTRAL PARK   CLOUDY    69  59  70 VRB3      30.06R
$$

NYZ005>009-017-018-044>046-055-056-222300-
CENTRAL


CITY           SKY/WX    TMP DP  RH WIND       PRES   REMARKS
FULTON         MOSUNNY   73  67  81 VRB6      29.99S
SYRACUSE       PTSUNNY   74  68  81 NE10      29.98S
ROME           CLOUDY    67  62  84 E13       30.04R
ELMIRA         MOSUNNY   81  68  65 E6        29.95S
BINGHAMTON     LGT RAIN  69  66  90 SE13      30.01R FOG
MONTICELLO     CLOUDY    63  61  94 E7        30.08R
$$

NYZ026>034-041>043-222300-
NORTH


CITY           SKY/WX    TMP DP  RH WIND       PRES   REMARKS
WATERTOWN      CLOUDY    74  66  76 NE7       30.00S
FORT DRUM      NOT AVBL
MASSENA        SUNNY     72  62  71 NE17G23   30.04R
SARANAC LAKE   CLOUDY    65  59  81 CALM      30.07R
PLATTSBURGH    LGT RAIN  64  62  93 S6        30.09S
$$

NYZ001>004-010>016-019>021-222300-
WEST


CITY           SKY/WX    TMP DP  RH WIND       PRES   REMARKS
NIAGARA FALLS  MOSUNNY   77  64  64 N12       29.96F
BUFFALO        MOSUNNY   78  65  63 NE12      29.97S
DUNKIRK        SUNNY     77  62  59 W9        29.97R
JAMESTOWN      MOSUNNY   73  64  73 N10       30.00R
WELLSVILLE     PTSUNNY   76  64  66 CALM      30.02R
ROCHESTER      MOSUNNY   76  66  71 E9        29.98S
PENN YAN       PTSUNNY   76  67  73 VRB6      29.99S
$$

             KEY
       WCI = WIND CHILL INDEX
       VSB = VISIBILITY
       HX  = HEAT INDEX
$$



USA.gov is the U.S. government's official web portal to all federal, state and local government web resources and services.